This is the latest recevied weather packets stored in our database for station/object K0SNA. If no packets are shown the sender has not sent any weather packets the latest 10 day(s).
| Time | Temp. | Humidity | Pressure | Rain* | Wind** | Luminosity | Snow |
|---|---|---|---|---|---|---|---|
| 1787770041 | 25° C | 60% | 1015.4 hPa | 0 mm | - | 570 W/m² | - |
| 1787769736 | 25° C | 60% | 1015.6 hPa | 0 mm | - | 179 W/m² | - |
| 1787769434 | 25° C | 60% | 1015.5 hPa | 0 mm | - | 252 W/m² | - |
| 1787769129 | 25° C | 60% | 1015.6 hPa | 0 mm | - | 363 W/m² | - |
| 1787768824 | 23.89° C | 62% | 1015.4 hPa | 0 mm | - | 674 W/m² | - |
| 1787768521 | 23.33° C | 63% | 1015.5 hPa | 0 mm | - | 213 W/m² | - |
| 1787768216 | 23.89° C | 62% | 1015.6 hPa | 0 mm | - | 206 W/m² | - |
| 1787767912 | 24.44° C | 62% | 1015.5 hPa | 0 mm | - | 127 W/m² | - |
| 1787767607 | 24.44° C | 63% | 1015.7 hPa | 0 mm | - | 187 W/m² | - |
| 1787767305 | 24.44° C | 63% | 1015.6 hPa | 0 mm | - | 284 W/m² | - |
| 1787766999 | 25° C | 62% | 1015.6 hPa | 0 mm | - | 180 W/m² | - |
| 1787766698 | 24.44° C | 62% | 1015.4 hPa | 0 mm | - | 784 W/m² | - |
| 1787766392 | 23.89° C | 64% | 1015.4 hPa | 0 mm | - | 682 W/m² | - |
| 1787766092 | 23.89° C | 64% | 1015.2 hPa | 0 mm | - | 200 W/m² | - |
| 1787765788 | 24.44° C | 65% | 1015.5 hPa | 0 mm | - | 205 W/m² | - |
| 1787765484 | 23.89° C | 65% | 1015.7 hPa | 0 mm | - | 470 W/m² | - |
| 1787765184 | 23.33° C | 67% | 1015.5 hPa | 0 mm | - | 424 W/m² | - |
| 1787764878 | 22.78° C | 68% | 1015.8 hPa | 0 mm | - | 256 W/m² | - |
| 1787764573 | 22.78° C | 68% | 1015.6 hPa | 0 mm | - | 126 W/m² | - |
| 1787764268 | 23.33° C | 66% | 1015.6 hPa | 0 mm | - | 262 W/m² | - |
| 1787763965 | 23.89° C | 68% | 1015.6 hPa | 0 mm | - | 234 W/m² | - |
| 1787763660 | 23.89° C | 69% | 1015.5 hPa | 0 mm | - | 687 W/m² | - |
| 1787763355 | 22.78° C | 71% | 1015.7 hPa | 0 mm | - | 653 W/m² | - |
| 1787763049 | 22.78° C | 71% | 1015.7 hPa | 0 mm | - | 157 W/m² | - |
| 1787762749 | 22.78° C | 69% | 1015.7 hPa | 0 mm | - | 172 W/m² | - |
* Rain latest hour (hover to see other rain measurements)
** Current wind speed in m/s (hover to see current wind gust speed)